Time,TemperatureF,DewpointF,PressureIn,WindDirection,WindDirectionDegrees,WindSpeedMPH,WindSpeedGustMPH,Humidity,HourlyPrecipIn,Conditions,Clouds,dailyrainin,SolarRadiationWatts/m^2,SoftwareType,DateUTC
2013-07-31 00:14:00,59.1,54.0,30.10,South,181,0.0,-999.0,82,-99.99,,,0.00,0,weatherlink.com 1.10,2013-07-31 07:14:00,
2013-07-31 00:29:00,58.8,53.0,30.10,South,181,0.0,-999.0,82,-99.99,,,0.00,0,weatherlink.com 1.10,2013-07-31 07:29:00,
2013-07-31 00:44:00,58.5,53.0,30.10,South,181,0.0,-999.0,82,-99.99,,,0.00,0,weatherlink.com 1.10,2013-07-31 07:44:00,
2013-07-31 00:59:00,58.4,53.0,30.10,South,181,0.0,-999.0,82,-99.99,,,0.00,0,weatherlink.com 1.10,2013-07-31 07:59:00,
2013-07-31 01:15:00,58.0,53.0,30.10,South,181,0.0,-999.0,82,-99.99,,,0.00,0,weatherlink.com 1.10,2013-07-31 08:15:00,
2013-07-31 01:30:00,57.8,53.0,30.09,South,181,0.0,-999.0,83,-99.99,,,0.00,0,weatherlink.com 1.10,2013-07-31 08:30:00,
2013-07-31 01:45:00,57.4,52.0,30.09,South,181,0.0,-999.0,83,-99.99,,,0.00,0,weatherlink.com 1.10,2013-07-31 08:45:00,
2013-07-31 02:00:00,56.9,52.0,30.09,South,181,0.0,-999.0,84,-99.99,,,0.00,0,weatherlink.com 1.10,2013-07-31 09:00:00,
2013-07-31 02:15:00,56.7,52.0,30.09,South,181,0.0,-999.0,84,-99.99,,,0.00,0,weatherlink.com 1.10,2013-07-31 09:15:00,
2013-07-31 02:30:00,56.5,52.0,30.09,South,181,0.0,-999.0,84,-99.99,,,0.00,0,weatherlink.com 1.10,2013-07-31 09:30:00,
2013-07-31 02:45:00,56.3,52.0,30.09,South,181,0.0,-999.0,85,-99.99,,,0.00,0,weatherlink.com 1.10,2013-07-31 09:45:00,
2013-07-31 03:00:00,56.0,51.0,30.08,South,181,0.0,-999.0,84,-99.99,,,0.00,0,weatherlink.com 1.10,2013-07-31 10:00:00,
2013-07-31 03:15:00,55.7,51.0,30.08,South,181,0.0,-999.0,85,-99.99,,,0.00,0,weatherlink.com 1.10,2013-07-31 10:15:00,
2013-07-31 03:30:00,55.5,51.0,30.09,South,181,0.0,-999.0,85,-99.99,,,0.00,0,weatherlink.com 1.10,2013-07-31 10:30:00,
2013-07-31 03:45:00,55.4,51.0,30.09,South,181,0.0,-999.0,85,-99.99,,,0.00,0,weatherlink.com 1.10,2013-07-31 10:45:00,
2013-07-31 04:00:00,55.1,51.0,30.08,South,181,0.0,-999.0,85,-99.99,,,0.00,0,weatherlink.com 1.10,2013-07-31 11:00:00,
2013-07-31 04:15:00,54.9,51.0,30.09,South,181,0.0,-999.0,85,-99.99,,,0.00,0,weatherlink.com 1.10,2013-07-31 11:15:00,
2013-07-31 04:30:00,54.6,51.0,30.09,South,181,0.0,-999.0,86,-99.99,,,0.00,0,weatherlink.com 1.10,2013-07-31 11:30:00,
2013-07-31 04:45:00,54.5,50.0,30.09,South,181,0.0,-999.0,86,-99.99,,,0.00,0,weatherlink.com 1.10,2013-07-31 11:45:00,
2013-07-31 05:00:00,54.2,50.0,30.09,South,181,0.0,-999.0,86,-99.99,,,0.00,0,weatherlink.com 1.10,2013-07-31 12:00:00,
2013-07-31 05:15:00,54.2,51.0,30.09,South,181,0.0,-999.0,87,-99.99,,,0.00,0,weatherlink.com 1.10,2013-07-31 12:15:00,
2013-07-31 05:30:00,54.5,51.0,30.09,South,181,0.0,-999.0,87,-99.99,,,0.00,0,weatherlink.com 1.10,2013-07-31 12:30:00,
2013-07-31 05:45:00,55.0,52.0,30.10,South,181,0.0,-999.0,88,-99.99,,,0.00,0,weatherlink.com 1.10,2013-07-31 12:45:00,
2013-07-31 06:00:00,55.7,52.0,30.10,South,181,0.0,-999.0,88,-99.99,,,0.00,0,weatherlink.com 1.10,2013-07-31 13:00:00,
2013-07-31 06:15:00,56.2,52.0,30.11,South,181,0.0,-999.0,87,-99.99,,,0.00,0,weatherlink.com 1.10,2013-07-31 13:15:00,
2013-07-31 06:30:00,56.7,53.0,30.11,South,181,0.0,-999.0,87,-99.99,,,0.00,7,weatherlink.com 1.10,2013-07-31 13:30:00,
2013-07-31 06:45:00,57.3,54.0,30.11,South,181,0.0,-999.0,87,-99.99,,,0.00,14,weatherlink.com 1.10,2013-07-31 13:45:00,
2013-07-31 07:00:00,58.0,54.0,30.11,South,181,0.0,-999.0,86,-99.99,,,0.00,21,weatherlink.com 1.10,2013-07-31 14:00:00,
2013-07-31 07:15:00,58.6,55.0,30.11,South,179,0.0,-999.0,86,-99.99,,,0.00,30,weatherlink.com 1.10,2013-07-31 14:15:00,
2013-07-31 07:30:00,59.4,55.0,30.12,South,177,0.0,-999.0,85,-99.99,,,0.00,44,weatherlink.com 1.10,2013-07-31 14:30:00,
2013-07-31 07:45:00,60.2,56.0,30.12,South,175,0.0,-999.0,85,-99.99,,,0.00,54,weatherlink.com 1.10,2013-07-31 14:45:00,
2013-07-31 08:00:00,61.3,57.0,30.12,East,100,0.0,-999.0,86,-99.99,,,0.00,70,weatherlink.com 1.10,2013-07-31 15:00:00,
2013-07-31 08:15:00,62.2,58.0,30.12,East,100,0.0,-999.0,85,-99.99,,,0.00,76,weatherlink.com 1.10,2013-07-31 15:15:00,
2013-07-31 08:30:00,62.6,58.0,30.12,East,100,0.0,-999.0,84,-99.99,,,0.00,84,weatherlink.com 1.10,2013-07-31 15:30:00,
2013-07-31 08:45:00,63.0,58.0,30.12,West,259,0.0,-999.0,84,-99.99,,,0.00,83,weatherlink.com 1.10,2013-07-31 15:45:00,
2013-07-31 09:00:00,63.2,58.0,30.12,SSW,213,0.0,-999.0,83,-99.99,,,0.00,88,weatherlink.com 1.10,2013-07-31 16:00:00,
2013-07-31 09:15:00,63.4,58.0,30.12,WSW,255,0.0,-999.0,83,-99.99,,,0.00,105,weatherlink.com 1.10,2013-07-31 16:15:00,
2013-07-31 09:31:00,63.5,58.0,30.12,WSW,255,0.0,-999.0,82,-99.99,,,0.00,146,weatherlink.com 1.10,2013-07-31 16:31:00,
2013-07-31 09:46:00,63.6,58.0,30.12,WSW,246,3.0,-999.0,82,-99.99,,,0.00,181,weatherlink.com 1.10,2013-07-31 16:46:00,
2013-07-31 10:01:00,64.4,59.0,30.12,WSW,242,0.0,-999.0,82,-99.99,,,0.00,221,weatherlink.com 1.10,2013-07-31 17:01:00,
2013-07-31 10:16:00,65.2,59.0,30.12,SSE,148,0.0,-999.0,80,-99.99,,,0.00,297,weatherlink.com 1.10,2013-07-31 17:16:00,
2013-07-31 10:31:00,66.2,60.0,30.12,ESE,112,0.0,-999.0,79,-99.99,,,0.00,364,weatherlink.com 1.10,2013-07-31 17:31:00,
2013-07-31 10:46:00,67.3,60.0,30.11,East,99,0.0,-999.0,76,-99.99,,,0.00,635,weatherlink.com 1.10,2013-07-31 17:46:00,
2013-07-31 11:16:00,70.7,60.0,30.11,SW,214,0.0,-999.0,69,-99.99,,,0.00,912,weatherlink.com 1.10,2013-07-31 18:16:00,
2013-07-31 11:31:00,71.2,60.0,30.10,SW,225,2.0,-999.0,67,-99.99,,,0.00,863,weatherlink.com 1.10,2013-07-31 18:31:00,
2013-07-31 11:46:00,72.3,61.0,30.10,WSW,244,5.0,-999.0,67,-99.99,,,0.00,868,weatherlink.com 1.10,2013-07-31 18:46:00,
2013-07-31 12:01:00,73.2,61.0,30.09,WSW,248,8.0,-999.0,65,-99.99,,,0.00,896,weatherlink.com 1.10,2013-07-31 19:01:00,
2013-07-31 12:31:00,74.5,61.0,30.08,WSW,255,3.0,-999.0,62,-99.99,,,0.00,886,weatherlink.com 1.10,2013-07-31 19:31:00,
2013-07-31 12:46:00,75.4,61.0,30.08,WNW,301,3.0,-999.0,61,-99.99,,,0.00,884,weatherlink.com 1.10,2013-07-31 19:46:00,
2013-07-31 13:01:00,76.1,61.0,30.07,North,1,0.0,-999.0,60,-99.99,,,0.00,882,weatherlink.com 1.10,2013-07-31 20:01:00,
2013-07-31 13:31:00,77.0,61.0,30.07,West,266,2.0,-999.0,58,-99.99,,,0.00,872,weatherlink.com 1.10,2013-07-31 20:31:00,
2013-07-31 13:46:00,76.7,61.0,30.06,NW,316,0.0,-999.0,58,-99.99,,,0.00,849,weatherlink.com 1.10,2013-07-31 20:46:00,
2013-07-31 14:01:00,76.7,61.0,30.06,NNW,333,1.0,-999.0,59,-99.99,,,0.00,854,weatherlink.com 1.10,2013-07-31 21:01:00,
2013-07-31 14:17:00,77.9,61.0,30.06,West,267,3.0,-999.0,56,-99.99,,,0.00,826,weatherlink.com 1.10,2013-07-31 21:17:00,
2013-07-31 14:32:00,77.8,61.0,30.06,WNW,300,1.0,-999.0,56,-99.99,,,0.00,805,weatherlink.com 1.10,2013-07-31 21:32:00,
2013-07-31 14:47:00,76.7,61.0,30.06,West,262,4.0,-999.0,58,-99.99,,,0.00,780,weatherlink.com 1.10,2013-07-31 21:47:00,
2013-07-31 15:02:00,76.7,60.0,30.05,WSW,248,0.0,-999.0,57,-99.99,,,0.00,754,weatherlink.com 1.10,2013-07-31 22:02:00,
2013-07-31 15:17:00,76.1,61.0,30.04,WSW,249,2.0,-999.0,59,-99.99,,,0.00,724,weatherlink.com 1.10,2013-07-31 22:17:00,
2013-07-31 15:32:00,76.6,61.0,30.04,NNW,340,0.0,-999.0,58,-99.99,,,0.00,693,weatherlink.com 1.10,2013-07-31 22:32:00,
2013-07-31 15:47:00,76.9,61.0,30.04,WNW,293,0.0,-999.0,58,-99.99,,,0.00,657,weatherlink.com 1.10,2013-07-31 22:47:00,
2013-07-31 16:02:00,77.6,61.0,30.03,WSW,248,3.0,-999.0,56,-99.99,,,0.00,612,weatherlink.com 1.10,2013-07-31 23:02:00,
2013-07-31 16:17:00,77.3,60.0,30.03,SW,236,6.0,-999.0,56,-99.99,,,0.00,575,weatherlink.com 1.10,2013-07-31 23:17:00,
2013-07-31 16:32:00,76.7,60.0,30.03,West,278,2.0,-999.0,57,-99.99,,,0.00,534,weatherlink.com 1.10,2013-07-31 23:32:00,
2013-07-31 16:47:00,76.5,61.0,30.02,West,279,0.0,-999.0,58,-99.99,,,0.00,490,weatherlink.com 1.10,2013-07-31 23:47:00,
2013-07-31 17:02:00,76.0,61.0,30.02,WNW,301,3.0,-999.0,59,-99.99,,,0.00,443,weatherlink.com 1.10,2013-08-01 00:02:00,
2013-07-31 17:17:00,75.7,60.0,30.02,WSW,255,8.0,-999.0,59,-99.99,,,0.00,396,weatherlink.com 1.10,2013-08-01 00:17:00,
2013-07-31 17:32:00,74.9,60.0,30.01,NNW,332,3.0,-999.0,60,-99.99,,,0.00,350,weatherlink.com 1.10,2013-08-01 00:32:00,
2013-07-31 17:47:00,74.6,60.0,30.01,NW,313,5.0,-999.0,60,-99.99,,,0.00,308,weatherlink.com 1.10,2013-08-01 00:47:00,
2013-07-31 18:02:00,73.4,59.0,30.01,WSW,252,4.0,-999.0,62,-99.99,,,0.00,160,weatherlink.com 1.10,2013-08-01 01:02:00,
2013-07-31 18:17:00,71.9,59.0,30.01,WSW,241,0.0,-999.0,65,-99.99,,,0.00,165,weatherlink.com 1.10,2013-08-01 01:17:00,
2013-07-31 18:32:00,70.6,60.0,30.01,WSW,245,5.0,-999.0,68,-99.99,,,0.00,47,weatherlink.com 1.10,2013-08-01 01:32:00,
2013-07-31 18:47:00,69.2,59.0,30.02,West,271,0.0,-999.0,71,-99.99,,,0.00,63,weatherlink.com 1.10,2013-08-01 01:47:00,
2013-07-31 19:02:00,68.3,59.0,30.02,NNW,338,0.0,-999.0,72,-99.99,,,0.00,49,weatherlink.com 1.10,2013-08-01 02:02:00,
2013-07-31 19:17:00,67.4,59.0,30.02,WNW,290,0.0,-999.0,74,-99.99,,,0.00,19,weatherlink.com 1.10,2013-08-01 02:17:00,
2013-07-31 19:32:00,66.7,59.0,30.02,NW,319,0.0,-999.0,75,-99.99,,,0.00,14,weatherlink.com 1.10,2013-08-01 02:32:00,
2013-07-31 19:47:00,66.2,58.0,30.02,NNW,327,0.0,-999.0,76,-99.99,,,0.00,5,weatherlink.com 1.10,2013-08-01 02:47:00,
2013-07-31 20:02:00,65.8,58.0,30.02,NW,322,0.0,-999.0,77,-99.99,,,0.00,0,weatherlink.com 1.10,2013-08-01 03:02:00,
2013-07-31 20:17:00,65.6,58.0,30.02,WNW,302,0.0,-999.0,77,-99.99,,,0.00,0,weatherlink.com 1.10,2013-08-01 03:17:00,
2013-07-31 20:32:00,65.3,58.0,30.03,NNW,328,2.0,-999.0,78,-99.99,,,0.00,0,weatherlink.com 1.10,2013-08-01 03:32:00,
2013-07-31 20:47:00,65.3,59.0,30.03,West,276,0.0,-999.0,79,-99.99,,,0.00,0,weatherlink.com 1.10,2013-08-01 03:47:00,
2013-07-31 21:02:00,65.2,59.0,30.03,WNW,297,0.0,-999.0,79,-99.99,,,0.00,0,weatherlink.com 1.10,2013-08-01 04:02:00,
2013-07-31 21:17:00,65.1,58.0,30.03,West,264,2.0,-999.0,79,-99.99,,,0.00,0,weatherlink.com 1.10,2013-08-01 04:17:00,
2013-07-31 21:32:00,65.0,59.0,30.03,West,269,0.0,-999.0,80,-99.99,,,0.00,0,weatherlink.com 1.10,2013-08-01 04:32:00,
2013-07-31 21:47:00,65.0,59.0,30.04,WSW,255,0.0,-999.0,80,-99.99,,,0.00,0,weatherlink.com 1.10,2013-08-01 04:47:00,
2013-07-31 22:02:00,65.0,59.0,30.03,WSW,255,0.0,-999.0,80,-99.99,,,0.00,0,weatherlink.com 1.10,2013-08-01 05:02:00,
2013-07-31 22:17:00,65.1,59.0,30.03,West,275,0.0,-999.0,80,-99.99,,,0.00,0,weatherlink.com 1.10,2013-08-01 05:17:00,
2013-07-31 22:32:00,65.1,58.0,30.04,NNW,333,0.0,-999.0,79,-99.99,,,0.00,0,weatherlink.com 1.10,2013-08-01 05:32:00,
2013-07-31 22:47:00,65.1,58.0,30.03,NNW,333,0.0,-999.0,79,-99.99,,,0.00,0,weatherlink.com 1.10,2013-08-01 05:47:00,
2013-07-31 23:02:00,65.2,59.0,30.03,NNW,333,0.0,-999.0,79,-99.99,,,0.00,0,weatherlink.com 1.10,2013-08-01 06:02:00,
2013-07-31 23:17:00,65.2,59.0,30.03,WSW,255,0.0,-999.0,79,-99.99,,,0.00,0,weatherlink.com 1.10,2013-08-01 06:17:00,
2013-07-31 23:32:00,65.1,58.0,30.03,WSW,246,0.0,-999.0,79,-99.99,,,0.00,0,weatherlink.com 1.10,2013-08-01 06:32:00,